Погода в Чкаловском

Россия / Республика Калмыкия     47°14′24″N   44°52′22″E
темп.,
°C
ветер,
м/с
пор.,
м/с
влажн.,
%
обл.,
%
осадки,
мм/ч
давл.,
гПа
погр.,
м
23 апреля, пт
пт2300:00+14з4666100 0.0 1022144
03:00+13зсз5880100 0.3 1022202
06:00+12сз4782100 0.1 1022384
09:00+12з3484100 0.4 1023312
12:00+14зсз347174 1.3 1022905
15:00+17зсз5848100 2.1 10212072
18:00+15з586016 0.0 1020379
21:00+12з35735 0.0 102075
24 апреля, сб
сб2400:00+11з357142 0.0 101966
03:00+10зюз3474100 0.0 101854
06:00+11зюз3570100 0.0 1018117
09:00+14з786798 0.1 1018656
12:00+13юз3868100 0.2 1018716
15:00+15зюз6106639 0.4 10171127
18:00+15з7116485 0.1 1017912
21:00+10зсз36840 0.1 1020155
25 апреля, вс
вс2500:00+8зюз36815 0.0 1020107
03:00+8зюз51079100 0.0 1021221
06:00+7з4878100 0.0 1022260
09:00+11сз555859 0.0 1022797
12:00+14зсз3443100 0.0 10221572
15:00+15зсз2341100 0.0 10211707
18:00+14св1251100 0.0 1020137
21:00+12юв1257100 0.0 1019117
26 апреля, пн
пн2600:00+10всв1469100 0.9 1019335
03:00+8всв6987100 3.9 1017431
06:00+8всв5988100 0.7 1016430
09:00+8всв5786100 0.8 1014442
12:00+10ссв5682100 0.1 1013539
15:00+9с6783100 0.1 1012398
18:00+7ссв5687100 0.0 1012336
21:00+7ссз4589100 0.0 1013238
27 апреля, вт
вт2700:00+7сз2588100 0.0 1013239
03:00+8зсз4989100 0.0 1014428
06:00+8зсз48855 0.0 1015417
09:00+11зсз787397 0.0 1016962
12:00+11з566286 0.0 10171202
15:00+14зсз55425 0.0 10161744
18:00+13зсз454926 0.0 1016285
21:00+10сз2254100 0.0 101726